EW9174 Weather Reports


Display with metric or nautical units.
time (UTC)temp
F
wind
direction
speed
MPH
gust
MPH
rain 1hr
in
rain 24hr
in
rain mn
in
humidity
%
barometer
mb
20260831111553 61 22 0.0 0.0 0.00 0.00 0.00 77 1008.2
20260831110057 61 21 0.0 0.0 0.00 0.00 0.00 75 1008.3
20260831104545 62 22 0.0 0.0 0.00 0.00 0.00 75 1008.4
20260831103043 62 22 0.0 0.0 0.00 0.00 0.00 74 1008.4
20260831094538 63 22 0.0 0.0 0.00 0.00 0.00 75 1008.1
20260831093031 63 22 0.0 0.0 0.00 0.00 0.00 73 1007.9
20260831091538 64 22 0.0 0.0 0.00 0.00 0.00 74 1007.7
20260831090024 64 22 0.0 0.0 0.00 0.00 0.00 71 1007.6
20260831084522 65 22 0.0 0.0 0.00 0.00 0.00 69 1007.6
20260831083019 66 22 0.0 1.0 0.00 0.00 0.00 67 1007.6
20260831081516 66 22 0.0 0.0 0.00 0.00 0.00 65 1007.6
20260831080014 67 22 0.0 2.0 0.00 0.00 0.00 64 1007.7
20260831074511 68 22 0.0 0.0 0.00 0.00 0.00 62 1008.2
20260831073009 69 22 0.0 0.0 0.00 0.00 0.00 61 1008.7
20260831071508 69 21 0.0 6.0 0.00 0.00 0.00 58 1008.9
20260831070006 68 34 1.0 4.0 0.00 0.00 0.00 59 1009.3
20260831064504 67 60 0.0 0.0 0.00 0.00 0.00 61 1009.2
20260831063100 68 60 0.0 1.0 0.00 0.00 0.00 63 1009.2
20260831061601 68 61 0.0 3.0 0.00 0.00 0.00 62 1008.9
20260831060057 68 60 0.0 0.0 0.00 0.00 0.00 61 1008.8
20260831054604 68 60 0.0 0.0 0.00 0.00 0.00 66 1009.1
20260831053056 68 60 0.0 1.0 0.00 0.00 0.00 61 1009.3
20260831051553 69 60 0.0 0.0 0.00 0.00 0.00 59 1009.5
20260831050055 69 60 0.0 0.0 0.00 0.00 0.00 59 1009.4
20260831044610 69 60 0.0 0.0 0.00 0.00 0.00 59 1009.2
20260831043050 69 60 0.0 0.0 0.00 0.00 0.00 58 1009.0
20260831041609 70 60 0.0 0.0 0.00 0.00 0.00 57 1008.7
20260831040048 71 60 0.0 0.0 0.00 0.00 0.00 57 1008.7
20260831034546 72 60 0.0 0.0 0.00 0.00 0.00 55 1008.6
20260831033044 73 60 0.0 0.0 0.00 0.00 0.00 54 1008.2
20260831031543 74 60 0.0 0.0 0.00 0.00 0.00 52 1008.3
20260831030048 74 60 0.0 1.0 0.00 0.00 0.00 49 1007.7
20260831024542 75 60 0.0 0.0 0.00 0.00 0.00 49 1007.0
20260831023035 76 60 0.0 2.0 0.00 0.00 0.00 47 1006.5
20260831021536 76 60 0.0 3.0 0.00 0.00 0.00 46 1006.1
20260831020034 76 60 0.0 4.0 0.00 0.00 0.00 45 1005.6
20260831014536 77 61 0.0 4.0 0.00 0.00 0.00 44 1005.1
20260831013034 77 44 1.0 3.0 0.00 0.00 0.00 44 1005.1
20260831011536 78 53 0.0 5.0 0.00 0.00 0.00 43 1004.8
20260831010031 78 67 1.0 8.0 0.00 0.00 0.00 43 1004.6
20260831004534 78 59 1.0 7.0 0.00 0.00 0.00 43 1004.8
20260831003030 80 30 2.0 10.0 0.00 0.00 0.00 40 1005.0
20260831001530 84 45 2.0 6.0 0.00 0.00 0.00 33 1004.7
20260831000030 85 47 0.0 1.0 0.00 0.00 0.00 32 1004.0
20260830234540 85 48 0.0 4.0 0.00 0.00 0.00 32 1003.7
20260830233028 85 51 0.0 4.0 0.00 0.00 0.00 34 1003.7
20260830231535 85 216 0.0 1.0 0.00 0.00 0.00 37 1003.6
20260830230040 86 216 0.0 0.0 0.00 0.00 0.00 39 1003.7
20260830224526 86 216 0.0 0.0 0.00 0.00 0.00 39 1003.8
20260830223026 86 216 0.0 1.0 0.00 0.00 0.00 38 1003.6
20260830221524 86 216 0.0 2.0 0.00 0.00 0.00 34 1003.4
20260830220026 87 216 0.0 0.0 0.00 0.00 0.00 37 1003.4
20260830214524 88 216 0.0 0.0 0.00 0.00 0.00 34 1003.4
20260830213021 89 216 0.0 1.0 0.00 0.00 0.00 34 1003.4
20260830211523 90 216 0.0 1.0 0.00 0.00 0.00 34 1003.5
20260830210019 91 216 0.0 1.0 0.00 0.00 0.00 33 1003.6
20260830204518 91 216 0.0 1.0 0.00 0.00 0.00 35 1003.5
20260830203016 91 216 0.0 1.0 0.00 0.00 0.00 33 1003.7
20260830201523 91 216 0.0 1.0 0.00 0.00 0.00 34 1004.0
20260830200011 90 212 0.0 1.0 0.00 0.00 0.00 35 1004.2
20260830194509 90 211 0.0 2.0 0.00 0.00 0.00 33 1004.3
20260830193010 89 210 0.0 3.0 0.00 0.00 0.00 31 1004.4
20260830191502 87 213 0.0 2.0 0.00 0.00 0.00 32 1004.7
20260830190059 87 211 2.0 6.0 0.00 0.00 0.00 34 1004.9
20260830184557 86 218 0.0 2.0 0.00 0.00 0.00 35 1005.1
20260830183057 86 311 1.0 5.0 0.00 0.00 0.00 32 1005.4
20260830181550 85 211 1.0 4.0 0.00 0.00 0.00 36 1005.4
20260830180056 82 50 1.0 3.0 0.00 0.00 0.00 43 1005.6
20260830174550 81 48 0.0 2.0 0.00 0.00 0.00 43 1005.6
20260830173052 80 48 0.0 1.0 0.00 0.00 0.00 46 1005.8
20260830171537 79 46 0.0 2.0 0.00 0.00 0.00 53 1006.2
20260830170033 77 46 0.0 2.0 0.00 0.00 0.00 52 1006.2
20260830164530 76 46 0.0 0.0 0.00 0.00 0.00 54 1006.3
20260830163026 75 46 0.0 3.0 0.00 0.00 0.00 55 1006.1
20260830161523 74 47 0.0 1.0 0.00 0.00 0.00 58 1006.0
20260830160021 73 47 0.0 1.0 0.00 0.00 0.00 60 1005.9
20260830154517 72 47 0.0 2.0 0.00 0.00 0.00 59 1005.9
20260830153018 71 47 0.0 0.0 0.00 0.00 0.00 66 1006.1
20260830151517 70 47 0.0 0.0 0.00 0.00 0.00 70 1006.0
20260830150025 68 47 0.0 0.0 0.00 0.00 0.00 65 1005.9
20260830144518 67 47 0.0 0.0 0.00 0.00 0.00 67 1005.9
20260830143015 66 47 0.0 0.0 0.00 0.00 0.00 69 1006.1
20260830141533 65 47 0.0 1.0 0.00 0.00 0.00 71 1006.4
20260830140013 64 47 0.0 1.0 0.00 0.00 0.00 71 1006.7
20260830134513 63 47 0.0 1.0 0.00 0.00 0.00 72 1006.6
20260830133010 62 47 0.0 0.0 0.00 0.00 0.00 74 1006.1
20260830131516 61 47 0.0 0.0 0.00 0.00 0.00 74 1006.1
20260830130007 61 47 0.0 0.0 0.00 0.00 0.00 75 1006.0
20260830124506 61 47 0.0 0.0 0.00 0.00 0.00 76 1006.0
20260830123017 61 47 0.0 0.0 0.00 0.00 0.00 76 1006.1
20260830121505 61 47 0.0 0.0 0.00 0.00 0.00 75 1006.1
20260830120006 61 47 0.0 0.0 0.00 0.00 0.00 73 1006.0
20260830114504 62 47 0.0 0.0 0.00 0.00 0.00 73 1005.9
20260830113059 62 47 0.0 0.0 0.00 0.00 0.00 74 1005.6